Alpena, MI

2:42 PM EST on February 26, 2017 (GMT -0500)
Alpena County Regional

Weather History for KAPN - December, 2012

Change the Weather History Date:

Saturday, December 1, 2012

  Actual Average Record
Temperature  
Mean Temperature 37 °F 30 °F  
Max Temperature 41 °F 37 °F 59 °F (1962)
Min Temperature 32 °F 24 °F -2 °F (1936)
Degree Days  
Heating Degree Days 28 35  
Month to date heating degree days 28 35  
Since 1 July heating degree days 1729 1858  
Moisture  
Dew Point 34 °F    
Average Humidity 91    
Maximum Humidity 100    
Minimum Humidity 82    
Precipitation  
Precipitation 0.29 in 0.06 in 1.28 in (1985)
Month to date precipitation 0.29 0.06  
Year to date precipitation 25.34 26.47  
Snow  
Snow 0.00 in 0.50 in 6.60 in (2006)
Month to date snowfall 0.0 0.5  
Since 1 July snowfall 2.2 8.6  
Snow Depth 1.00 in    
Sea Level Pressure  
Sea Level Pressure 30.11 in    
Wind  
Wind Speed 9 mph (SSE)    
Max Wind Speed 16 mph    
Max Gust Speed 22 mph    
Visibility 4 miles    
Events Rain    
T = Trace of Precipitation, MM = Missing Value Source: NWS Daily Summary

Daily Weather History Graph

Daily Weather History Graph

Search for Another Location

Airport or City:

Trip Planner

Search our weather history database for the weather conditions in past years. The results will help you decide how hot, cold, wet, or windy it might be!

Date:

Astronomy

Dec. 01, 2012 Rise Set
Actual Time 7:53 AM EST 4:53 PM EST
Civil Twilight 7:19 AM EST 5:26 PM EST
Nautical Twilight 6:43 AM EST 6:03 PM EST
Astronomical Twilight 6:07 AM EST 6:39 PM EST
Moon 7:45 PM EST (12/1) 10:03 AM EST (12/1)
Length of Visible Light 10h 07m
Length of Day
9h 00m
Waning Gibbous, 92% of the Moon is Illuminated
Dec 1
Waning Gibbous
Dec 6
Last Quarter
Dec 13
New
Dec 20
First Quarter
Dec 28
Full

Hourly Weather History & Observations

Time (EST) Temp. Windchill Dew Point Humidity Pressure Visibility Wind Dir Wind Speed Gust Speed Precip Events Conditions
12:54 AM 33.1 °F 26.9 °F 30.0 °F 89% 30.33 in 10.0 mi East 6.9 mph - N/A   Overcast
1:54 AM 33.1 °F 26.1 °F 30.0 °F 89% 30.32 in 9.0 mi East 8.1 mph - N/A   Overcast
2:54 AM 33.1 °F 27.7 °F 30.0 °F 89% 30.33 in 9.0 mi East 5.8 mph - N/A   Overcast
3:54 AM 33.1 °F 26.9 °F 30.0 °F 89% 30.34 in 8.0 mi ESE 6.9 mph - N/A   Overcast
4:54 AM 33.1 °F 25.5 °F 30.0 °F 89% 30.32 in 9.0 mi ESE 9.2 mph - N/A   Overcast
5:54 AM 33.1 °F 26.9 °F 30.0 °F 89% 30.30 in 10.0 mi ESE 6.9 mph - N/A   Overcast
6:54 AM 34.0 °F 26.6 °F 30.9 °F 89% 30.28 in 10.0 mi ESE 9.2 mph - N/A   Overcast
7:54 AM 34.0 °F 25.0 °F 30.9 °F 89% 30.27 in 9.0 mi SE 12.7 mph - N/A   Overcast
8:54 AM 34.0 °F 26.6 °F 30.9 °F 89% 30.27 in 7.0 mi SSE 9.2 mph - N/A   Overcast
9:54 AM 34.0 °F 26.0 °F 32.0 °F 92% 30.25 in 5.0 mi SSE 10.4 mph 19.6 mph N/A   Overcast
10:54 AM 35.1 °F 26.9 °F 32.0 °F 89% 30.24 in 5.0 mi SSE 11.5 mph - N/A   Overcast
11:54 AM 35.1 °F 25.5 °F 32.0 °F 89% 30.20 in 5.0 mi South 15.0 mph - N/A   Overcast
12:54 PM 35.1 °F 26.4 °F 32.0 °F 89% 30.17 in 4.0 mi SSE 12.7 mph - N/A   Overcast
1:54 PM 35.1 °F 26.9 °F 32.0 °F 89% 30.15 in 3.0 mi SSE 11.5 mph - N/A   Overcast
2:54 PM 35.1 °F 27.4 °F 32.0 °F 89% 30.12 in 3.0 mi SSE 10.4 mph - N/A   Overcast
3:54 PM 35.1 °F 27.4 °F 32.0 °F 89% 30.11 in 3.0 mi SSE 10.4 mph - N/A   Overcast
4:54 PM 34.0 °F 25.5 °F 32.0 °F 92% 30.09 in 4.0 mi SSE 11.5 mph - N/A   Overcast
5:52 PM 33.8 °F 27.0 °F 33.8 °F 100% 30.05 in 2.5 mi South 8.1 mph - N/A   Overcast
5:54 PM 34.0 °F 26.6 °F 34.0 °F 100% 30.07 in 2.5 mi South 9.2 mph - N/A   Overcast
6:18 PM 35.6 °F 28.6 °F 33.8 °F 93% 30.05 in 1.8 mi South 9.2 mph - N/A   Overcast
6:54 PM 35.1 °F 29.3 °F 34.0 °F 96% 30.05 in 0.8 mi SSE 6.9 mph - N/A   Overcast
7:54 PM 35.1 °F 28.6 °F 35.1 °F 100% 30.03 in 1.0 mi SSE 8.1 mph - N/A   Overcast
8:33 PM 37.4 °F 30.8 °F 35.6 °F 93% 29.96 in 2.0 mi SSE 9.2 mph - N/A   Overcast
8:54 PM 37.0 °F 29.3 °F 36.0 °F 96% 29.96 in 2.0 mi SSE 11.5 mph - 0.00 in Rain Light Rain
9:38 PM 39.2 °F 32.5 °F 37.4 °F 93% 29.92 in 2.5 mi SSE 10.4 mph - 0.01 in Rain Light Rain
9:54 PM 39.0 °F 32.8 °F 37.9 °F 96% 29.94 in 2.5 mi SSE 9.2 mph - 0.02 in Rain Light Rain
10:08 PM 39.2 °F 35.0 °F 37.4 °F 93% 29.91 in 1.5 mi SSE 5.8 mph - 0.04 in Rain Heavy Rain
10:30 PM 39.2 °F 34.2 °F 37.4 °F 93% 29.89 in 1.8 mi SSE 6.9 mph - 0.12 in Rain Light Rain
10:54 PM 39.0 °F 36.8 °F 39.0 °F 100% 29.91 in 1.5 mi South 3.5 mph - 0.17 in Rain Rain
11:10 PM 39.2 °F 32.5 °F 39.2 °F 100% 29.88 in 2.0 mi South 10.4 mph - 0.03 in Rain Light Rain
11:23 PM 39.2 °F 34.2 °F 39.2 °F 100% 29.88 in 2.0 mi South 6.9 mph - 0.05 in Rain Light Rain
11:35 PM 39.2 °F 34.2 °F 39.2 °F 100% 29.87 in 2.0 mi South 6.9 mph - 0.06 in Rain Light Rain
11:47 PM 39.2 °F 34.2 °F 39.2 °F 100% 29.87 in 1.8 mi South 6.9 mph - 0.07 in Rain Light Rain
11:54 PM 41.0 °F 35.8 °F 39.9 °F 96% 29.88 in 1.8 mi South 8.1 mph - 0.08 in Rain Light Rain